Regional Weather Roundup
Issued by NWS Newport/Morehead, NC

Current Version | Previous Version | Text Only | Print | Product List | Glossary Off
Versions: 1 2 3 4 5 6 7 8 9 10 11 12 13 14 15 16 17 18 19 20 21 22 23 24 25 26 27 28 29 30 31 32 33 34 35 36 37 38 39 40 41 42 43 44 45 46 47 48 49 50
000 ASUS42 KMHX 280912 RWRMHX WEATHER ROUNDUP FOR EASTERN NORTH CAROLINA NATIONAL WEATHER SERVICE NEWPORT/MOREHEAD CITY NC 400 AM EST SAT FEB 28 2015 NOTE: "FAIR" INDICATES FEW OR NO CLOUDS BELOW 12,000 FEET WITH NO SIGNIFICANT WEATHER AND/OR OBSTRUCTIONS TO VISIBILITY NCZ015>017-031-032-045>047-102-103-281000- NORTH COAST CITY SKY/WX TMP DP RH WIND PRES REMARKS EDENTON CLEAR 27 24 87 N7 30.66R ELIZABETH CITY CLEAR 29 19 66 N13 30.67R WCI 19 KITTY HAWK SUNNY 32 21 64 N13G22 30.61S MANTEO CLEAR 32 21 64 N15G24 30.62R $$ NCZ045>047-081-094-103-104-281000- CENTRAL COAST CITY SKY/WX TMP DP RH WIND PRES REMARKS FRISCO PTCLDY 35 29 78 N12G23 30.59R SWANQUARTER N/A 30 N/A N/A VRB14 30.59R WCI 20 $$ NCZ095-097-098-100-101-281000- SOUTHERN COAST CITY SKY/WX TMP DP RH WIND PRES REMARKS BEAUFORT PTCLDY 32 30 92 N14 30.60R CEDAR ISLAND N/A 34 N/A N/A N25 30.62S JACKSONVILLE PTCLDY 30 27 88 N8 30.59R PINEY ISLAND N/A N/A N/A N/A MISG 30.60R WILMINGTON PTCLDY 31 27 85 NE10 30.57R $$ NCZ011>013-027>030-043-044-078>080-089-090>093-098-281000- COASTAL PLAIN CITY SKY/WX TMP DP RH WIND PRES REMARKS AHOSKIE CLEAR 25 20 83 N5 30.68R CLINTON CLEAR 30 28 92 NE7 30.60S ELIZABETHTOWN CLEAR 31 28 87 CALM 30.58S GOLDSBORO CLEAR 29 28 98 NE9 30.60R GREENVILLE CLEAR 30 27 86 NE8 30.63R HAVELOCK PTCLDY 32 28 85 NE10 30.61R KENANSVILLE PTCLDY 29 27 92 NE5 30.62R KINSTON CLEAR 29 26 89 NE9 30.63R NEW BERN CLEAR 30 27 88 NE12 30.62R RICHLANDS MOCLDY 28 25 86 NE10 30.60R WCI 19 ROCKY MOUNT CLEAR 27 21 78 NE7 30.65R WASHINGTON CLEAR 28 24 87 NE8 30.64R WHITEVILLE PTCLDY 33 28 83 NE8 30.56S $$ AMZ130-135-150-152-154-156-158-170-250-252-270-ANZ085-086-088-633-658-670-281000- MARINE OBSERVATIONS STATION/POSITION TIME TEMP WIND PRES WAVE SWELL AIR SEA DIR/SP/G HT/PER HT/PER (UTC) (F) (DEG/KT/KT) (MB) (FT/S) (FT/S) CHESAPEAKE LIGHT 0800 30 20/ 23/ 25 1037.6 64 E VA BEACH 0850 37 60 10/ 21/ 27 1035.8 7/11 3/11 DUCK 0800 33 35 20/ 21/ 26 1035.9 2 E DUCK 0811 35 N/A 6/ 6 2/11 10 NE DUCK 0822 36 N/A 6/ 5 2/11 OREGON INLET 0800 34 38 360/ 15/ 22 1035.7 HATTERAS CG 0800 36 40 10/ 21/ 25 1035.3 CAPE LOOKOUT 0900 35 20/ 19/ 24 1035.2 BEAUFORT LAB 0800 33 41 10/ 11/ 15 1034.3 27 SE WRIGHTSVLE NOT AVBL 5 SE WRIGHTSVLE NOT AVBL 225 S CAPE HAT 0850 66 70 40/ 19/ 25 1027.6 9/10 5/10 41 SE CHARLESTON 0850 55 65 50/ 23/ 27 1029.3 7/ 6 3/11 $$

USA.gov is the U.S. government's official web portal to all federal, state and local government web resources and services.